Find Starlink 34760

NORAD ID: 65359 Int'l Des: 2025-190 Owner: SPXS Country: US Constellation: starlink operational
LEOCIRCULAR

現在のビュー

3D地球を読み込み中...

Starlink 34760について

説明を読み込み中...

次回通過

Passes for default location (London). Set your location on the main map for personalized predictions.

高度履歴

Loading altitude history...

軌道要素

1 65359U 25190J 26149.38952597 .00024977 00000-0 85268-3 0 9996
2 65359 53.1579 153.1268 0001308 85.1581 274.9569 15.30197092 41640
Epoch: May 29, 2026 • Age: 27 hours

現在のステータス

高度 477.7 km
速度 7.63 km/s
衛星直下点 38.70°N, 145.19°W
打ち上げ日 Aug 28, 2025
運用期間 0.7 years
タイプ internet

技術仕様

分類 Payload
質量 575.00 kg
乾燥質量 530.00 kg
総質量 575.00 kg
長さ 0.30 m
直径 4.10 m
スパン 29.00 m
形状 Box + pan
製造者 SPXS
バスタイプ Starlink V2MO
フェーズステータス In Orbit
所有者/国 SPXS/US

Most Searched